Location: Brotuna
(46.2000°N, 22.6000°E)
Time: 23:51:04
(UTC+00:00)

Cosmos 2058 Rocket - Pass Details

Date: 09 April 2020
Orbit: 610 x 640 km, 82.5° (Epoch: 03 June)

Event Time Altitude Azimuth Distance (km) Brightness Sun altitude
Rises 18:52:51 0° 203° (SSW) 2,931 6.4 -17.3°
Reaches altitude 10° 18:55:09 10° 209° (SSW) 2,027 5.7 -17.7°
Maximum altitude 18:59:29 47° 283° (WNW) 854 4.2 -18.3°
Drops below altitude 10° 19:03:52 10° 358° (N) 2,036 6.2 -18.9°
Sets 19:06:11 0° 4° (N) 2,946 7.0 -19.2°
